This is the latest recevied weather packets stored in our database for station/object N1HQ. If no packets are shown the sender has not sent any weather packets the latest 10 day(s).
| Time | Temp. | Humidity | Pressure | Rain* | Wind** | Luminosity | Snow |
|---|---|---|---|---|---|---|---|
| 1787619440 | 28.89° C | 83% | 1012.6 hPa | 0 mm | - | - | - |
| 1787619143 | 28.89° C | 81% | 1012.5 hPa | 0 mm | - | - | - |
| 1787618879 | 28.89° C | 79% | 1012.7 hPa | 0 mm | - | - | - |
| 1787618588 | 28.89° C | 80% | 1012.7 hPa | 0 mm | - | - | - |
| 1787618328 | 28.89° C | 81% | 1012.6 hPa | 0 mm | - | - | - |
| 1787618088 | 28.89° C | 81% | 1012.7 hPa | 0 mm | - | - | - |
| 1787617838 | 28.89° C | 81% | 1012.9 hPa | 0 mm | - | - | - |
| 1787617571 | 29.44° C | 83% | 1012.9 hPa | 0 mm | - | - | - |
| 1787617303 | 29.44° C | 84% | 1012.9 hPa | 0 mm | - | - | - |
| 1787617063 | 30° C | 87% | 1012.9 hPa | 0 mm | - | - | - |
| 1787616783 | 30.56° C | 88% | 1012.9 hPa | 0 mm | - | - | - |
| 1787616543 | 30.56° C | 88% | 1012.8 hPa | 0 mm | - | - | - |
| 1787616283 | 30.56° C | 88% | 1012.8 hPa | 0 mm | - | - | - |
| 1787615988 | 30.56° C | 87% | 1012.8 hPa | 0 mm | - | - | - |
| 1787615743 | 30.56° C | 87% | 1012.9 hPa | 0 mm | - | - | - |
| 1787615503 | 30.56° C | 87% | 1012.9 hPa | 0 mm | - | - | - |
| 1787615228 | 30.56° C | 86% | 1012.9 hPa | 0 mm | - | - | - |
| 1787614963 | 30.56° C | 86% | 1012.9 hPa | 0 mm | - | - | - |
| 1787614683 | 30.56° C | 87% | 1012.7 hPa | 0 mm | - | - | - |
| 1787614393 | 30.56° C | 87% | 1012.5 hPa | 0 mm | - | - | - |
| 1787614098 | 30.56° C | 87% | 1012.6 hPa | 0 mm | - | - | - |
| 1787613803 | 30.56° C | 88% | 1012.7 hPa | 0 mm | - | - | - |
| 1787613558 | 30.56° C | 88% | 1012.7 hPa | 0 mm | - | - | - |
| 1787613303 | 30.56° C | 88% | 1012.8 hPa | 0 mm | - | - | - |
| 1787613056 | 30.56° C | 88% | 1012.7 hPa | 0 mm | - | - | - |
* Rain latest hour (hover to see other rain measurements)
** Current wind speed in m/s (hover to see current wind gust speed)